LB9CG Weather Reports


Display with metric or nautical units.
time (UTC)temp
F
wind
direction
speed
MPH
gust
MPH
rain 1hr
in
rain 24hr
in
rain mn
in
humidity
%
barometer
mb
20260831183036 51 0.0 0.0 0.04 0.21 0.18 97 1006.3
20260831182120 51 0.0 0.0 0.03 0.21 0.17 97 1006.1
20260831181144 51 0.0 0.0 0.01 0.20 0.15 97 1006.3
20260831180036 51 0.0 0.0 0.04 0.19 0.14 98 1006.2
20260831175120 51 0.0 0.0 0.03 0.18 0.13 98 1006.0
20260831174144 51 0.0 0.0 0.02 0.17 0.12 98 1006.1
20260831173056 51 0.0 0.0 0.01 0.16 0.11 98 1006.1
20260831172100 51 0.0 0.0 0.00 0.15 0.10 98 1006.0
20260831171124 51 0.0 0.0 0.00 0.15 0.10 97 1006.0
20260831170036 51 0.0 0.0 0.02 0.15 0.10 97 1006.1
20260831165120 51 0.0 0.0 0.01 0.14 0.09 96 1006.0
20260831164124 51 0.0 0.0 0.01 0.14 0.09 96 1006.1
20260831163036 51 0.0 0.0 0.00 0.13 0.08 95 1006.1
20260831162100 51 0.0 0.0 0.00 0.13 0.08 95 1006.0
20260831161124 51 0.0 0.0 0.00 0.13 0.08 94 1005.9
20260831160036 51 0.0 0.0 0.03 0.13 0.08 93 1005.9
20260831155100 52 320 1.0 2.0 0.02 0.12 0.07 93 1005.9
20260831154124 52 0.0 0.0 0.02 0.12 0.07 94 1006.0
20260831153036 52 342 0.0 1.0 0.02 0.12 0.07 94 1006.0
20260831152100 52 19 1.0 1.0 0.01 0.11 0.06 94 1006.1
20260831151124 52 0.0 0.0 0.01 0.11 0.06 94 1005.8
20260831150036 52 318 0.0 1.0 0.03 0.10 0.05 94 1006.0
20260831145100 52 12 0.0 1.0 0.02 0.09 0.04 93 1006.0
20260831144124 52 360 1.0 1.0 0.02 0.09 0.04 93 1005.9
20260831143116 52 10 1.0 2.0 0.01 0.08 0.03 93 1005.7
20260831142100 52 345 1.0 2.0 0.01 0.08 0.03 92 1005.8
20260831141124 52 0.0 0.0 0.00 0.07 0.02 92 1005.7
20260831140036 52 0.0 0.0 0.01 0.07 0.02 92 1005.9
20260831135100 53 349 3.0 5.0 0.01 0.07 0.02 90 1005.7
20260831134124 53 3 2.0 3.0 0.00 0.06 0.01 88 1005.7
20260831133036 53 300 1.0 2.0 0.00 0.06 0.01 87 1005.7
20260831132100 53 333 1.0 2.0 0.00 0.06 0.01 86 1005.9
20260831131204 53 336 0.0 2.0 0.00 0.06 0.01 86 1005.5
20260831130036 53 6 1.0 3.0 0.00 0.06 0.01 86 1005.5
20260831125100 54 331 2.0 5.0 0.00 0.06 0.01 86 1005.6
20260831124204 54 356 2.0 3.0 0.00 0.06 0.01 86 1005.4
20260831123036 54 17 2.0 4.0 0.00 0.06 0.01 86 1005.2
20260831122100 54 20 1.0 2.0 0.00 0.06 0.01 85 1005.4
20260831121124 54 57 1.0 2.0 0.00 0.06 0.01 85 1005.3
20260831120036 54 348 2.0 4.0 0.00 0.06 0.01 85 1005.2
20260831115100 54 348 1.0 4.0 0.00 0.06 0.01 84 1005.3
20260831114144 54 349 2.0 4.0 0.00 0.06 0.01 85 1005.3
20260831113055 54 295 1.0 2.0 0.00 0.06 0.01 85 1005.1
20260831112120 54 323 2.0 4.0 0.00 0.06 0.01 84 1005.0
20260831111123 54 335 1.0 3.0 0.00 0.06 0.01 84 1005.0
20260831110036 55 318 2.0 4.0 0.00 0.06 0.01 84 1005.1
20260831105102 55 359 1.0 1.0 0.00 0.06 0.01 84 1004.9
20260831104126 54 30 1.0 4.0 0.00 0.06 0.01 83 1004.9
20260831103038 54 342 2.0 4.0 0.00 0.06 0.01 84 1005.0
20260831102101 54 340 1.0 4.0 0.00 0.06 0.01 86 1005.0
20260831101125 54 308 1.0 3.0 0.00 0.06 0.01 86 1004.9
20260831100037 55 325 2.0 3.0 0.00 0.06 0.01 85 1004.8
20260831095101 55 27 1.0 4.0 0.00 0.06 0.01 85 1004.8
20260831094125 55 334 2.0 6.0 0.00 0.06 0.01 85 1004.6
20260831093037 55 14 2.0 4.0 0.00 0.06 0.01 86 1004.7
20260831092101 54 357 1.0 3.0 0.00 0.06 0.01 88 1004.6
20260831091125 54 253 1.0 2.0 0.00 0.06 0.01 88 1004.8
20260831090037 54 354 2.0 3.0 0.00 0.06 0.01 89 1004.7
20260831085121 54 341 2.0 2.0 0.00 0.06 0.01 90 1004.4
20260831084125 54 4 3.0 8.0 0.00 0.06 0.01 90 1004.5
20260831083037 54 331 3.0 5.0 0.00 0.06 0.01 90 1004.5
20260831082101 54 339 2.0 3.0 0.00 0.06 0.01 91 1004.4
20260831081145 54 0 1.0 3.0 0.00 0.06 0.01 92 1004.4
20260831080037 53 14 1.0 3.0 0.00 0.06 0.01 93 1004.4
20260831075101 54 324 1.0 2.0 0.00 0.06 0.01 94 1004.3
20260831074125 53 26 1.0 2.0 0.00 0.06 0.01 95 1004.4
20260831073037 53 320 1.0 3.0 0.00 0.06 0.01 95 1004.3
20260831072120 53 334 1.0 2.0 0.00 0.06 0.01 97 1004.2
20260831071144 53 345 1.0 2.0 0.00 0.06 0.01 96 1004.3
20260831070037 53 335 3.0 3.0 0.00 0.06 0.01 96 1004.4
20260831065101 53 342 0.0 1.0 0.00 0.06 0.01 96 1004.3
20260831064124 53 25 2.0 3.0 0.00 0.06 0.01 96 1004.2
20260831063037 53 345 1.0 3.0 0.00 0.06 0.01 97 1004.2
20260831062121 53 0.0 0.0 0.00 0.06 0.01 98 1004.1
20260831061145 53 0.0 0.0 0.00 0.06 0.01 98 1004.2
20260831060037 53 0.0 0.0 0.00 0.06 0.01 99 1004.2
20260831055100 53 0.0 0.0 0.00 0.06 0.01 99 1004.1
20260831054124 51 0.0 0.0 0.00 0.06 0.01 99 1004.3
20260831053036 51 0.0 0.0 0.00 0.06 0.01 99 1004.3
20260831052100 51 0.0 0.0 0.00 0.06 0.01 99 1004.2
20260831051123 51 0.0 0.0 0.00 0.06 0.01 99 1004.3
20260831050036 50 0.0 0.0 0.00 0.06 0.01 99 1004.2
20260831045100 50 0.0 0.0 0.00 0.06 0.01 99 1004.2
20260831044124 50 0.0 0.0 0.00 0.06 0.01 99 1004.2
20260831043036 51 0.0 0.0 0.00 0.06 0.01 99 1004.2
20260831042100 51 0.0 0.0 0.00 0.06 0.01 99 1003.9
20260831041144 51 0.0 0.0 0.00 0.06 0.01 99 1004.1
20260831040036 51 0.0 0.0 0.00 0.06 0.01 99 1004.0
20260831035100 51 0.0 0.0 0.00 0.06 0.01 99 1003.9
20260831034124 50 0.0 0.0 0.00 0.06 0.01 99 1003.9
20260831033036 51 0.0 0.0 0.00 0.06 0.01 99 1003.9
20260831032100 51 0.0 0.0 0.00 0.06 0.01 99 1003.9
20260831031124 51 0.0 0.0 0.00 0.06 0.01 99 1003.9
20260831030036 51 0.0 0.0 0.00 0.06 0.01 99 1003.8
20260831025119 50 0.0 0.0 0.00 0.06 0.01 99 1003.9
20260831024143 50 0.0 0.0 0.00 0.06 0.01 99 1003.9
20260831023036 50 0.0 0.0 0.00 0.06 0.01 99 1003.9
20260831022059 50 0.0 0.0 0.00 0.06 0.01 99 1004.1
20260831021123 50 0.0 0.0 0.00 0.06 0.01 99 1004.0
20260831020035 50 0.0 0.0 0.01 0.06 0.01 99 1004.1
20260831015059 50 0.0 0.0 0.01 0.06 0.01 99 1004.0
20260831014123 50 0.0 0.0 0.01 0.06 0.01 99 1004.0
20260831013035 50 0.0 0.0 0.01 0.06 0.01 99 1003.9
20260831012059 50 0.0 0.0 0.01 0.06 0.01 99 1004.1
20260831011123 50 0.0 0.0 0.00 0.05 0.00 99 1003.9
20260831010036 50 0.0 0.0 0.00 0.05 0.00 99 1004.0
20260831005059 50 0.0 0.0 0.00 0.05 0.00 99 1003.9
20260831004124 50 0.0 0.0 0.00 0.05 0.00 99 1003.9
20260831003036 50 0.0 0.0 0.00 0.05 0.00 99 1004.0
20260831002119 49 0.0 0.0 0.00 0.05 0.00 99 1003.9
20260831001123 50 0.0 0.0 0.00 0.05 0.00 99 1004.0
20260831000035 50 0.0 0.0 0.00 0.05 0.00 99 1003.9
20260830235059 51 0.0 0.0 0.00 0.05 0.00 99 1004.0
20260830234123 51 0.0 0.0 0.00 0.05 0.00 99 1004.0
20260830233035 51 0.0 0.0 0.00 0.05 0.00 99 1004.0
20260830232059 51 0.0 0.0 0.00 0.05 0.00 99 1004.0
20260830231123 51 0.0 0.0 0.00 0.05 0.00 99 1004.0
20260830230036 51 0.0 0.0 0.00 0.05 0.05 99 1003.9
20260830225102 52 0.0 0.0 0.00 0.05 0.05 99 1003.9
20260830224126 52 0.0 0.0 0.00 0.05 0.05 99 1003.9
20260830222102 52 0.0 0.0 0.00 0.05 0.05 99 1003.7
20260830221126 52 0.0 0.0 0.00 0.05 0.05 98 1003.7
20260830220038 52 0.0 0.0 0.00 0.05 0.05 98 1003.8
20260830215102 52 0.0 0.0 0.00 0.05 0.05 98 1003.5
20260830214126 52 0.0 0.0 0.00 0.05 0.05 98 1003.7
20260830213038 53 0.0 0.0 0.00 0.05 0.05 98 1003.8
20260830212102 52 0.0 0.0 0.00 0.05 0.05 98 1003.6
20260830211126 52 0.0 0.0 0.00 0.05 0.05 98 1003.5
20260830210038 52 0.0 0.0 0.00 0.05 0.05 98 1003.5
20260830205102 52 0.0 0.0 0.00 0.05 0.05 98 1003.6
20260830204146 52 0.0 0.0 0.00 0.05 0.05 97 1003.6
20260830203058 52 0.0 0.0 0.00 0.05 0.05 97 1003.5
20260830202142 52 0.0 0.0 0.00 0.05 0.05 97 1003.2
20260830201126 53 0.0 0.0 0.00 0.05 0.05 98 1003.4
20260830200058 53 0.0 0.0 0.00 0.05 0.05 98 1003.3
20260830195122 53 0.0 0.0 0.00 0.05 0.05 97 1003.4
20260830194125 53 0.0 0.0 0.00 0.05 0.05 97 1003.5
20260830193037 53 0.0 0.0 0.00 0.05 0.05 97 1003.5
20260830192101 53 0.0 0.0 0.00 0.05 0.05 97 1003.3
20260830191126 53 0.0 0.0 0.00 0.05 0.05 96 1003.2
20260830190037 53 0.0 0.0 0.05 0.05 0.05 96 1003.1
20260830185102 54 0.0 0.0 0.05 0.05 0.05 96 1003.1
20260830184125 54 333 1.0 2.0 0.04 0.04 0.04 96 1003.0